Year,Month,Day,Hour,Minute,Value (Times are PST for temperature in C)
2007,03,14,00,00,3.80
2007,03,14,00,01,3.70
2007,03,14,00,02,3.70
2007,03,14,00,03,3.70
2007,03,14,00,04,3.60
2007,03,14,00,05,3.60
2007,03,14,00,06,3.60
2007,03,14,00,07,3.60
2007,03,14,00,08,3.50
2007,03,14,00,09,3.50
2007,03,14,00,10,3.50
2007,03,14,00,11,3.50
2007,03,14,00,12,3.50
2007,03,14,00,13,3.50
2007,03,14,00,14,3.40
2007,03,14,00,15,3.40
2007,03,14,00,16,3.40
2007,03,14,00,17,3.50
2007,03,14,00,18,3.50
2007,03,14,00,19,3.40
2007,03,14,00,20,3.40
2007,03,14,00,21,3.40
2007,03,14,00,22,3.40
2007,03,14,00,23,3.40
2007,03,14,00,24,3.40
2007,03,14,00,25,3.40
2007,03,14,00,26,3.40
2007,03,14,00,27,3.40
2007,03,14,00,28,3.40
2007,03,14,00,29,3.40
2007,03,14,00,30,3.50
2007,03,14,00,31,3.50
2007,03,14,00,32,3.50
2007,03,14,00,33,3.60
2007,03,14,00,34,3.70
2007,03,14,00,35,3.70
2007,03,14,00,36,3.80
2007,03,14,00,37,3.80
2007,03,14,00,38,3.90
2007,03,14,00,39,4.00
2007,03,14,00,40,4.10
2007,03,14,00,41,4.20
2007,03,14,00,42,4.20
2007,03,14,00,43,4.20
2007,03,14,00,44,4.20
2007,03,14,00,45,4.20
2007,03,14,00,46,4.20
2007,03,14,00,47,4.20
2007,03,14,00,48,4.20
2007,03,14,00,49,4.20
2007,03,14,00,50,4.20
2007,03,14,00,51,4.20
2007,03,14,00,52,4.10
2007,03,14,00,53,4.10
2007,03,14,00,54,4.00
2007,03,14,00,55,4.00
2007,03,14,00,56,3.90
2007,03,14,00,57,3.90
2007,03,14,00,58,3.80
2007,03,14,00,59,3.80
2007,03,14,01,00,3.80
2007,03,14,01,01,3.80
2007,03,14,01,02,3.80
2007,03,14,01,03,3.80
2007,03,14,01,04,3.80
2007,03,14,01,05,3.80
2007,03,14,01,06,3.80
2007,03,14,01,07,3.80
2007,03,14,01,08,3.80
2007,03,14,01,09,3.80
2007,03,14,01,10,3.70
2007,03,14,01,11,3.70
2007,03,14,01,12,3.70
2007,03,14,01,13,3.70
2007,03,14,01,14,3.60
2007,03,14,01,15,3.60
2007,03,14,01,16,3.60
2007,03,14,01,17,3.60
2007,03,14,01,18,3.50
2007,03,14,01,19,3.60
2007,03,14,01,20,3.60
2007,03,14,01,21,3.60
2007,03,14,01,22,3.60
2007,03,14,01,23,3.60
2007,03,14,01,24,3.60
2007,03,14,01,25,3.60
2007,03,14,01,26,3.60
2007,03,14,01,27,3.50
2007,03,14,01,28,3.50
2007,03,14,01,29,3.50
2007,03,14,01,30,3.50
2007,03,14,01,31,3.50
2007,03,14,01,32,3.50
2007,03,14,01,33,3.50
2007,03,14,01,34,3.50
2007,03,14,01,35,3.50
2007,03,14,01,36,3.50
2007,03,14,01,37,3.60
2007,03,14,01,38,3.70
2007,03,14,01,39,3.80
2007,03,14,01,40,3.80
2007,03,14,01,41,3.80
2007,03,14,01,42,3.80
2007,03,14,01,43,3.80
2007,03,14,01,44,3.80
2007,03,14,01,45,3.80
2007,03,14,01,46,3.70
2007,03,14,01,47,3.70
2007,03,14,01,48,3.60
2007,03,14,01,49,3.60
2007,03,14,01,50,3.60
2007,03,14,01,51,3.60
2007,03,14,01,52,3.70
2007,03,14,01,53,3.70
2007,03,14,01,54,3.70
2007,03,14,01,55,3.80
2007,03,14,01,56,3.80
2007,03,14,01,57,3.80
2007,03,14,01,58,3.80
2007,03,14,01,59,3.90
2007,03,14,02,00,4.00
2007,03,14,02,01,4.00
2007,03,14,02,02,4.00
2007,03,14,02,03,4.10
2007,03,14,02,04,4.20
2007,03,14,02,05,4.20
2007,03,14,02,06,4.20
2007,03,14,02,07,4.20
2007,03,14,02,08,4.20
2007,03,14,02,09,4.20
2007,03,14,02,10,4.20
2007,03,14,02,11,4.20
2007,03,14,02,12,4.20
2007,03,14,02,13,4.20
2007,03,14,02,14,4.20
2007,03,14,02,15,4.20
2007,03,14,02,16,4.20
2007,03,14,02,17,4.20
2007,03,14,02,18,4.20
2007,03,14,02,19,4.20
2007,03,14,02,20,4.20
2007,03,14,02,21,4.10
2007,03,14,02,22,4.10
2007,03,14,02,23,4.10
2007,03,14,02,24,4.10
2007,03,14,02,25,4.10
2007,03,14,02,26,4.10
2007,03,14,02,27,4.10
2007,03,14,02,28,4.00
2007,03,14,02,29,4.00
2007,03,14,02,30,4.00
2007,03,14,02,31,4.00
2007,03,14,02,32,4.00
2007,03,14,02,33,4.00
2007,03,14,02,34,4.10
2007,03,14,02,35,4.10
2007,03,14,02,36,4.10
2007,03,14,02,37,4.10
2007,03,14,02,38,4.10
2007,03,14,02,39,4.10
2007,03,14,02,40,4.10
2007,03,14,02,41,4.20
2007,03,14,02,42,4.10
2007,03,14,02,43,4.10
2007,03,14,02,44,4.10
2007,03,14,02,45,4.20
2007,03,14,02,46,4.20
2007,03,14,02,47,4.20
2007,03,14,02,48,4.10
2007,03,14,02,49,4.10
2007,03,14,02,50,4.10
2007,03,14,02,51,4.10
2007,03,14,02,52,4.10
2007,03,14,02,53,4.10
2007,03,14,02,54,4.20
2007,03,14,02,55,4.20
2007,03,14,02,56,4.20
2007,03,14,02,57,4.20
2007,03,14,02,58,4.20
2007,03,14,02,59,4.20
2007,03,14,03,00,4.20
2007,03,14,03,01,4.20
2007,03,14,03,02,4.20
2007,03,14,03,03,4.20
2007,03,14,03,04,4.20
2007,03,14,03,05,4.20
2007,03,14,03,06,4.20
2007,03,14,03,07,4.20
2007,03,14,03,08,4.20
2007,03,14,03,09,4.20
2007,03,14,03,10,4.20
2007,03,14,03,11,4.20
2007,03,14,03,12,4.20
2007,03,14,03,13,4.20
2007,03,14,03,14,4.20
2007,03,14,03,15,4.20
2007,03,14,03,16,4.20
2007,03,14,03,17,4.20
2007,03,14,03,18,4.20
2007,03,14,03,19,4.10
2007,03,14,03,20,4.10
2007,03,14,03,21,4.10
2007,03,14,03,22,4.00
2007,03,14,03,23,4.00
2007,03,14,03,24,4.00
2007,03,14,03,25,3.90
2007,03,14,03,26,3.90
2007,03,14,03,27,3.90
2007,03,14,03,28,3.90
2007,03,14,03,29,3.80
2007,03,14,03,30,3.80
2007,03,14,03,31,3.80
2007,03,14,03,32,3.80
2007,03,14,03,33,3.80
2007,03,14,03,34,3.80
2007,03,14,03,35,3.80
2007,03,14,03,36,3.80
2007,03,14,03,37,3.80
2007,03,14,03,38,3.80
2007,03,14,03,39,3.80
2007,03,14,03,40,3.80
2007,03,14,03,41,3.80
2007,03,14,03,42,3.80
2007,03,14,03,43,3.80
2007,03,14,03,44,3.80
2007,03,14,03,45,3.80
2007,03,14,03,46,3.80
2007,03,14,03,47,3.80
2007,03,14,03,48,3.80
2007,03,14,03,49,3.80
2007,03,14,03,50,3.80
2007,03,14,03,51,3.80
2007,03,14,03,52,3.80
2007,03,14,03,53,3.80
2007,03,14,03,54,3.80
2007,03,14,03,55,3.80
2007,03,14,03,56,3.70
2007,03,14,03,57,3.70
2007,03,14,03,58,3.70
2007,03,14,03,59,3.70
2007,03,14,04,00,3.70
2007,03,14,04,01,3.70
2007,03,14,04,02,3.70
2007,03,14,04,03,3.70
2007,03,14,04,04,3.70
2007,03,14,04,05,3.60
2007,03,14,04,06,3.60
2007,03,14,04,07,3.60
2007,03,14,04,08,3.60
2007,03,14,04,09,3.50
2007,03,14,04,10,3.50
2007,03,14,04,11,3.50
2007,03,14,04,12,3.50
2007,03,14,04,13,3.40
2007,03,14,04,14,3.40
2007,03,14,04,15,3.40
2007,03,14,04,16,3.40
2007,03,14,04,17,3.30
2007,03,14,04,18,3.30
2007,03,14,04,19,3.30
2007,03,14,04,20,3.30
2007,03,14,04,21,3.30
2007,03,14,04,22,3.30
2007,03,14,04,23,3.30
2007,03,14,04,24,3.30
2007,03,14,04,25,3.30
2007,03,14,04,26,3.30
2007,03,14,04,27,3.30
2007,03,14,04,28,3.30
2007,03,14,04,29,3.30
2007,03,14,04,30,3.30
2007,03,14,04,31,3.30
2007,03,14,04,32,3.30
2007,03,14,04,33,3.30
2007,03,14,04,34,3.30
2007,03,14,04,35,3.30
2007,03,14,04,36,3.40
2007,03,14,04,37,3.40
2007,03,14,04,38,3.40
2007,03,14,04,39,3.30
2007,03,14,04,40,3.40
2007,03,14,04,41,3.40
2007,03,14,04,42,3.40
2007,03,14,04,43,3.30
2007,03,14,04,44,3.30
2007,03,14,04,45,3.30
2007,03,14,04,46,3.30
2007,03,14,04,47,3.30
2007,03,14,04,48,3.30
2007,03,14,04,49,3.30
2007,03,14,04,50,3.30
2007,03,14,04,51,3.30
2007,03,14,04,52,3.30
2007,03,14,04,53,3.30
2007,03,14,04,54,3.20
2007,03,14,04,55,3.20
2007,03,14,04,56,3.20
2007,03,14,04,57,3.20
2007,03,14,04,58,3.20
2007,03,14,04,59,3.20
2007,03,14,05,00,3.20
2007,03,14,05,01,3.10
2007,03,14,05,02,3.10
2007,03,14,05,03,3.10
2007,03,14,05,04,3.10
2007,03,14,05,05,3.10
2007,03,14,05,06,3.20
2007,03,14,05,07,3.20
2007,03,14,05,08,3.20
2007,03,14,05,09,3.20
2007,03,14,05,10,3.20
2007,03,14,05,11,3.20
2007,03,14,05,12,3.30
2007,03,14,05,13,3.30
2007,03,14,05,14,3.30
2007,03,14,05,15,3.20
2007,03,14,05,16,3.20
2007,03,14,05,17,3.30
2007,03,14,05,18,3.30
2007,03,14,05,19,3.30
2007,03,14,05,20,3.30
2007,03,14,05,21,3.30
2007,03,14,05,22,3.30
2007,03,14,05,23,3.20
2007,03,14,05,24,3.20
2007,03,14,05,25,3.20
2007,03,14,05,26,3.20
2007,03,14,05,27,3.20
2007,03,14,05,28,3.20
2007,03,14,05,29,3.20
2007,03,14,05,30,3.10
2007,03,14,05,31,3.10
2007,03,14,05,32,3.10
2007,03,14,05,33,3.10
2007,03,14,05,34,3.00
2007,03,14,05,35,2.90
2007,03,14,05,36,2.90
2007,03,14,05,37,2.90
2007,03,14,05,38,2.90
2007,03,14,05,39,2.90
2007,03,14,05,40,2.90
2007,03,14,05,41,2.90
2007,03,14,05,42,2.90
2007,03,14,05,43,2.80
2007,03,14,05,44,2.80
2007,03,14,05,45,2.80
2007,03,14,05,46,2.70
2007,03,14,05,47,2.70
2007,03,14,05,48,2.60
2007,03,14,05,49,2.60
2007,03,14,05,50,2.70
2007,03,14,05,51,2.70
2007,03,14,05,52,2.70
2007,03,14,05,53,2.70
2007,03,14,05,54,2.70
2007,03,14,05,55,2.80
2007,03,14,05,56,2.80
2007,03,14,05,57,2.80
2007,03,14,05,58,2.80
2007,03,14,05,59,2.80
2007,03,14,06,00,2.80
2007,03,14,06,01,2.80
2007,03,14,06,02,2.90
2007,03,14,06,03,2.90
2007,03,14,06,04,2.90
2007,03,14,06,05,2.90
2007,03,14,06,06,2.90
2007,03,14,06,07,2.90
2007,03,14,06,08,2.90
2007,03,14,06,09,2.90
2007,03,14,06,10,2.90
2007,03,14,06,11,2.90
2007,03,14,06,12,2.90
2007,03,14,06,13,2.90
2007,03,14,06,14,3.00
2007,03,14,06,15,3.10
2007,03,14,06,16,3.10
2007,03,14,06,17,3.10
2007,03,14,06,18,3.20
2007,03,14,06,19,3.20
2007,03,14,06,20,3.20
2007,03,14,06,21,3.20
2007,03,14,06,22,3.20
2007,03,14,06,23,3.10
2007,03,14,06,24,3.10
2007,03,14,06,25,3.10
2007,03,14,06,26,3.10
2007,03,14,06,27,3.10
2007,03,14,06,28,3.10
2007,03,14,06,29,3.10
2007,03,14,06,30,3.10
2007,03,14,06,31,3.10
2007,03,14,06,32,3.10
2007,03,14,06,33,3.10
2007,03,14,06,34,3.10
2007,03,14,06,35,3.20
2007,03,14,06,36,3.20
2007,03,14,06,37,3.20
2007,03,14,06,38,3.20
2007,03,14,06,39,3.20
2007,03,14,06,40,3.20
2007,03,14,06,41,3.20
2007,03,14,06,42,3.20
2007,03,14,06,43,3.10
2007,03,14,06,44,3.10
2007,03,14,06,45,3.10
2007,03,14,06,46,3.10
2007,03,14,06,47,3.10
2007,03,14,06,48,3.10
2007,03,14,06,49,3.10
2007,03,14,06,50,3.10
2007,03,14,06,51,3.10
2007,03,14,06,52,3.10
2007,03,14,06,53,3.10
2007,03,14,06,54,3.10
2007,03,14,06,55,3.10
2007,03,14,06,56,3.10
2007,03,14,06,57,3.00
2007,03,14,06,58,2.90
2007,03,14,06,59,2.90
2007,03,14,07,00,2.90
2007,03,14,07,01,2.90
2007,03,14,07,02,2.80
2007,03,14,07,03,2.80
2007,03,14,07,04,2.70
2007,03,14,07,05,2.70
2007,03,14,07,06,2.70
2007,03,14,07,07,2.70
2007,03,14,07,08,2.70
2007,03,14,07,09,2.70
2007,03,14,07,10,2.70
2007,03,14,07,11,2.60
2007,03,14,07,12,2.60
2007,03,14,07,13,2.60
2007,03,14,07,14,2.60
2007,03,14,07,15,2.60
2007,03,14,07,16,2.50
2007,03,14,07,17,2.50
2007,03,14,07,18,2.50
2007,03,14,07,19,2.50
2007,03,14,07,20,2.40
2007,03,14,07,21,2.40
2007,03,14,07,22,2.30
2007,03,14,07,23,2.30
2007,03,14,07,24,2.30
2007,03,14,07,25,2.20
2007,03,14,07,26,2.20
2007,03,14,07,27,2.20
2007,03,14,07,28,2.20
2007,03,14,07,29,2.20
2007,03,14,07,30,2.20
2007,03,14,07,31,2.20
2007,03,14,07,32,2.20
2007,03,14,07,33,2.20
2007,03,14,07,34,2.20
2007,03,14,07,35,2.20
2007,03,14,07,36,2.20
2007,03,14,07,37,2.20
2007,03,14,07,38,2.20
2007,03,14,07,39,2.20
2007,03,14,07,40,2.20
2007,03,14,07,41,2.20
2007,03,14,07,42,2.20
2007,03,14,07,43,2.20
2007,03,14,07,44,2.20
2007,03,14,07,45,2.20
2007,03,14,07,46,2.20
2007,03,14,07,47,2.20
2007,03,14,07,48,2.30
2007,03,14,07,49,2.30
2007,03,14,07,50,2.30
2007,03,14,07,51,2.40
2007,03,14,07,52,2.40
2007,03,14,07,53,2.40
2007,03,14,07,54,2.40
2007,03,14,07,55,2.40
2007,03,14,07,56,2.40
2007,03,14,07,57,2.40
2007,03,14,07,58,2.40
2007,03,14,07,59,2.40
2007,03,14,08,00,2.40
2007,03,14,08,01,2.40
2007,03,14,08,02,2.40
2007,03,14,08,03,2.50
2007,03,14,08,04,2.50
2007,03,14,08,05,2.50
2007,03,14,08,06,2.50
2007,03,14,08,07,2.50
2007,03,14,08,08,2.50
2007,03,14,08,09,2.50
2007,03,14,08,10,2.50
2007,03,14,08,11,2.60
2007,03,14,08,12,2.60
2007,03,14,08,13,2.60
2007,03,14,08,14,2.60
2007,03,14,08,15,2.60
2007,03,14,08,16,2.70
2007,03,14,08,17,2.70
2007,03,14,08,18,2.70
2007,03,14,08,19,2.70
2007,03,14,08,20,2.70
2007,03,14,08,21,2.70
2007,03,14,08,22,2.70
2007,03,14,08,23,2.70
2007,03,14,08,24,2.70
2007,03,14,08,25,2.60
2007,03,14,08,26,2.60
2007,03,14,08,27,2.60
2007,03,14,08,28,2.50
2007,03,14,08,29,2.50
2007,03,14,08,30,2.40
2007,03,14,08,31,2.40
2007,03,14,08,32,2.40
2007,03,14,08,33,2.50
2007,03,14,08,34,2.50
2007,03,14,08,35,2.50
2007,03,14,08,36,2.60
2007,03,14,08,37,2.60
2007,03,14,08,38,2.70
2007,03,14,08,39,2.70
2007,03,14,08,40,2.70
2007,03,14,08,41,2.70
2007,03,14,08,42,2.80
2007,03,14,08,43,2.90
2007,03,14,08,44,2.90
2007,03,14,08,45,2.90
2007,03,14,08,46,2.90
2007,03,14,08,47,2.90
2007,03,14,08,48,3.00
2007,03,14,08,49,3.10
2007,03,14,08,50,3.10
2007,03,14,08,51,3.10
2007,03,14,08,52,3.10
2007,03,14,08,53,3.10
2007,03,14,08,54,3.10
2007,03,14,08,55,3.10
2007,03,14,08,56,3.10
2007,03,14,08,57,3.10
2007,03,14,08,58,3.10
2007,03,14,08,59,3.10
2007,03,14,09,00,3.10
2007,03,14,09,01,3.10
2007,03,14,09,02,3.10
2007,03,14,09,03,3.10
2007,03,14,09,04,3.10
2007,03,14,09,05,3.20
2007,03,14,09,06,3.20
2007,03,14,09,07,3.20
2007,03,14,09,08,3.20
2007,03,14,09,09,3.20
2007,03,14,09,10,3.30
2007,03,14,09,11,3.30
2007,03,14,09,12,3.30
2007,03,14,09,13,3.30
2007,03,14,09,14,3.30
2007,03,14,09,15,3.30
2007,03,14,09,16,3.30
2007,03,14,09,17,3.30
2007,03,14,09,18,3.30
2007,03,14,09,19,3.30
2007,03,14,09,20,3.40
2007,03,14,09,21,3.40
2007,03,14,09,22,3.40
2007,03,14,09,23,3.40
2007,03,14,09,24,3.40
2007,03,14,09,25,3.40
2007,03,14,09,26,3.50
2007,03,14,09,27,3.50
2007,03,14,09,28,3.50
2007,03,14,09,29,3.50
2007,03,14,09,30,3.50
2007,03,14,09,31,3.50
2007,03,14,09,32,3.60
2007,03,14,09,33,3.60
2007,03,14,09,34,3.70
2007,03,14,09,35,3.70
2007,03,14,09,36,3.80
2007,03,14,09,37,3.80
2007,03,14,09,38,3.80
2007,03,14,09,39,3.80
2007,03,14,09,40,3.80
2007,03,14,09,41,3.80
2007,03,14,09,42,3.80
2007,03,14,09,43,3.80
2007,03,14,09,44,3.90
2007,03,14,09,45,3.90
2007,03,14,09,46,3.90
2007,03,14,09,47,3.90
2007,03,14,09,48,4.00
2007,03,14,09,49,4.00
2007,03,14,09,50,4.00
2007,03,14,09,51,4.00
2007,03,14,09,52,4.00
2007,03,14,09,53,4.00
2007,03,14,09,54,4.00
2007,03,14,09,55,4.00
2007,03,14,09,56,4.00
2007,03,14,09,57,4.00
2007,03,14,09,58,4.10
2007,03,14,09,59,4.10
2007,03,14,10,00,4.10
2007,03,14,10,01,4.10
2007,03,14,10,02,4.20
2007,03,14,10,03,4.20
2007,03,14,10,04,4.20
2007,03,14,10,05,4.20
2007,03,14,10,06,4.20
2007,03,14,10,07,4.30
2007,03,14,10,08,4.30
2007,03,14,10,09,4.40
2007,03,14,10,10,4.40
2007,03,14,10,11,4.40
2007,03,14,10,12,4.50
2007,03,14,10,13,4.50
2007,03,14,10,14,4.50
2007,03,14,10,15,4.60
2007,03,14,10,16,4.60
2007,03,14,10,17,4.60
2007,03,14,10,18,4.60
2007,03,14,10,19,4.60
2007,03,14,10,20,4.60
2007,03,14,10,21,4.60
2007,03,14,10,22,4.60
2007,03,14,10,23,4.60
2007,03,14,10,24,4.60
2007,03,14,10,25,4.60
2007,03,14,10,26,4.60
2007,03,14,10,27,4.60
2007,03,14,10,28,4.70
2007,03,14,10,29,4.70
2007,03,14,10,30,4.80
2007,03,14,10,31,4.80
2007,03,14,10,32,4.90
2007,03,14,10,33,4.90
2007,03,14,10,34,4.90
2007,03,14,10,35,5.00
2007,03,14,10,36,5.10
2007,03,14,10,37,5.10
2007,03,14,10,38,5.10
2007,03,14,10,39,5.10
2007,03,14,10,40,5.10
2007,03,14,10,41,5.20
2007,03,14,10,42,5.20
2007,03,14,10,43,5.20
2007,03,14,10,44,5.30
2007,03,14,10,45,5.30
2007,03,14,10,46,5.30
2007,03,14,10,47,5.30
2007,03,14,10,48,5.30
2007,03,14,10,49,5.30
2007,03,14,10,50,5.30
2007,03,14,10,51,5.30
2007,03,14,10,52,5.30
2007,03,14,10,53,5.30
2007,03,14,10,54,5.30
2007,03,14,10,55,5.30
2007,03,14,10,56,5.30
2007,03,14,10,57,5.30
2007,03,14,10,58,5.40
2007,03,14,10,59,5.50
2007,03,14,11,00,5.50
2007,03,14,11,01,5.60
2007,03,14,11,02,5.60
2007,03,14,11,03,5.70
2007,03,14,11,04,5.70
2007,03,14,11,05,5.70
2007,03,14,11,06,5.80
2007,03,14,11,07,5.90
2007,03,14,11,08,5.90
2007,03,14,11,09,5.90
2007,03,14,11,10,5.90
2007,03,14,11,11,6.00
2007,03,14,11,12,6.00
2007,03,14,11,13,5.90
2007,03,14,11,14,5.90
2007,03,14,11,15,5.90
2007,03,14,11,16,5.90
2007,03,14,11,17,5.90
2007,03,14,11,18,6.00
2007,03,14,11,19,6.00
2007,03,14,11,20,6.00
2007,03,14,11,21,6.10
2007,03,14,11,22,6.10
2007,03,14,11,23,6.10
2007,03,14,11,24,6.10
2007,03,14,11,25,6.10
2007,03,14,11,26,6.20
2007,03,14,11,27,6.20
2007,03,14,11,28,6.20
2007,03,14,11,29,6.20
2007,03,14,11,30,6.20
2007,03,14,11,31,6.20
2007,03,14,11,32,6.20
2007,03,14,11,33,6.20
2007,03,14,11,34,6.20
2007,03,14,11,35,6.20
2007,03,14,11,36,6.20
2007,03,14,11,37,6.20
2007,03,14,11,38,6.20
2007,03,14,11,39,6.20
2007,03,14,11,40,6.20
2007,03,14,11,41,6.20
2007,03,14,11,42,6.20
2007,03,14,11,43,6.20
2007,03,14,11,44,6.20
2007,03,14,11,45,6.20
2007,03,14,11,46,6.30
2007,03,14,11,47,6.30
2007,03,14,11,48,6.40
2007,03,14,11,49,6.40
2007,03,14,11,50,6.40
2007,03,14,11,51,6.60
2007,03,14,11,52,6.60
2007,03,14,11,53,6.60
2007,03,14,11,54,6.60
2007,03,14,11,55,6.60
2007,03,14,11,56,6.60
2007,03,14,11,57,6.60
2007,03,14,11,58,6.60
2007,03,14,11,59,6.60
2007,03,14,12,00,6.60
2007,03,14,12,01,6.60
2007,03,14,12,02,6.60
2007,03,14,12,03,6.60
2007,03,14,12,04,6.60
2007,03,14,12,05,6.60
2007,03,14,12,06,6.70
2007,03,14,12,07,6.70
2007,03,14,12,08,6.70
2007,03,14,12,09,6.60
2007,03,14,12,10,6.60
2007,03,14,12,11,6.60
2007,03,14,12,12,6.60
2007,03,14,12,13,6.70
2007,03,14,12,14,6.70
2007,03,14,12,15,6.80
2007,03,14,12,16,6.80
2007,03,14,12,17,6.80
2007,03,14,12,18,6.80
2007,03,14,12,19,6.90
2007,03,14,12,20,6.90
2007,03,14,12,21,7.00
2007,03,14,12,22,7.10
2007,03,14,12,23,7.10
2007,03,14,12,24,7.10
2007,03,14,12,25,7.20
2007,03,14,12,26,7.20
2007,03,14,12,27,7.20
2007,03,14,12,28,7.30
2007,03,14,12,29,7.30
2007,03,14,12,30,7.40
2007,03,14,12,31,7.50
2007,03,14,12,32,7.60
2007,03,14,12,33,7.70
2007,03,14,12,34,7.80
2007,03,14,12,35,7.80
2007,03,14,12,36,7.80
2007,03,14,12,37,7.80
2007,03,14,12,38,7.80
2007,03,14,12,39,7.80
2007,03,14,12,40,7.80
2007,03,14,12,41,7.80
2007,03,14,12,42,7.70
2007,03,14,12,43,7.80
2007,03,14,12,44,7.80
2007,03,14,12,45,7.80
2007,03,14,12,46,7.70
2007,03,14,12,47,7.60
2007,03,14,12,48,7.50
2007,03,14,12,49,7.40
2007,03,14,12,50,7.30
2007,03,14,12,51,7.30
2007,03,14,12,52,7.30
2007,03,14,12,53,7.30
2007,03,14,12,54,7.30
2007,03,14,12,55,7.30
2007,03,14,12,56,7.30
2007,03,14,12,57,7.30
2007,03,14,12,58,7.40
2007,03,14,12,59,7.40
2007,03,14,13,00,7.50
2007,03,14,13,01,7.50
2007,03,14,13,02,7.50
2007,03,14,13,03,7.50
2007,03,14,13,04,7.50
2007,03,14,13,05,7.60
2007,03,14,13,06,7.70
2007,03,14,13,07,7.60
2007,03,14,13,08,7.50
2007,03,14,13,09,7.50
2007,03,14,13,10,7.40
2007,03,14,13,11,7.30
2007,03,14,13,12,7.30
2007,03,14,13,13,7.30
2007,03,14,13,14,7.30
2007,03,14,13,15,7.40
2007,03,14,13,16,7.50
2007,03,14,13,17,7.50
2007,03,14,13,18,7.50
2007,03,14,13,19,7.50
2007,03,14,13,20,7.50
2007,03,14,13,21,7.50
2007,03,14,13,22,7.50
2007,03,14,13,23,7.60
2007,03,14,13,24,7.60
2007,03,14,13,25,7.70
2007,03,14,13,26,7.70
2007,03,14,13,27,7.60
2007,03,14,13,28,7.60
2007,03,14,13,29,7.60
2007,03,14,13,30,7.70
2007,03,14,13,31,7.80
2007,03,14,13,32,7.80
2007,03,14,13,33,7.80
2007,03,14,13,34,7.80
2007,03,14,13,35,7.80
2007,03,14,13,36,7.80
2007,03,14,13,37,7.80
2007,03,14,13,38,7.80
2007,03,14,13,39,7.80
2007,03,14,13,40,7.80
2007,03,14,13,41,7.80
2007,03,14,13,42,7.80
2007,03,14,13,43,7.80
2007,03,14,13,44,7.80
2007,03,14,13,45,7.80
2007,03,14,13,46,7.80
2007,03,14,13,47,7.90
2007,03,14,13,48,7.90
2007,03,14,13,49,7.90
2007,03,14,13,50,7.90
2007,03,14,13,51,7.90
2007,03,14,13,52,7.90
2007,03,14,13,53,7.90
2007,03,14,13,54,7.90
2007,03,14,13,55,7.90
2007,03,14,13,56,7.90
2007,03,14,13,57,7.90
2007,03,14,13,58,7.90
2007,03,14,13,59,7.90
2007,03,14,14,00,7.90
2007,03,14,14,01,7.90
2007,03,14,14,02,7.90
2007,03,14,14,03,7.90
2007,03,14,14,04,7.90
2007,03,14,14,05,8.00
2007,03,14,14,06,8.00
2007,03,14,14,07,8.00
2007,03,14,14,08,8.00
2007,03,14,14,09,8.10
2007,03,14,14,10,8.20
2007,03,14,14,11,8.20
2007,03,14,14,12,8.20
2007,03,14,14,13,8.20
2007,03,14,14,14,8.30
2007,03,14,14,15,8.30
2007,03,14,14,16,8.30
2007,03,14,14,17,8.30
2007,03,14,14,18,8.30
2007,03,14,14,19,8.30
2007,03,14,14,20,8.40
2007,03,14,14,21,8.40
2007,03,14,14,22,8.50
2007,03,14,14,23,8.60
2007,03,14,14,24,8.70
2007,03,14,14,25,8.70
2007,03,14,14,26,8.70
2007,03,14,14,27,8.70
2007,03,14,14,28,8.70
2007,03,14,14,29,8.60
2007,03,14,14,30,8.60
2007,03,14,14,31,8.50
2007,03,14,14,32,8.50
2007,03,14,14,33,8.50
2007,03,14,14,34,8.40
2007,03,14,14,35,8.40
2007,03,14,14,36,8.50
2007,03,14,14,37,8.50
2007,03,14,14,38,8.50
2007,03,14,14,39,8.50
2007,03,14,14,40,8.50
2007,03,14,14,41,8.60
2007,03,14,14,42,8.70
2007,03,14,14,43,8.70
2007,03,14,14,44,8.70
2007,03,14,14,45,8.80
2007,03,14,14,46,8.90
2007,03,14,14,47,9.00
2007,03,14,14,48,9.10
2007,03,14,14,49,9.20
2007,03,14,14,50,9.20
2007,03,14,14,51,9.30
2007,03,14,14,52,9.40
2007,03,14,14,53,9.40
2007,03,14,14,54,9.30
2007,03,14,14,55,9.30
2007,03,14,14,56,9.20
2007,03,14,14,57,9.20
2007,03,14,14,58,9.20
2007,03,14,14,59,9.30
2007,03,14,15,00,9.30
2007,03,14,15,01,9.30
2007,03,14,15,02,9.30
2007,03,14,15,03,9.30
2007,03,14,15,04,9.30
2007,03,14,15,05,9.30
2007,03,14,15,06,9.20
2007,03,14,15,07,9.10
2007,03,14,15,08,9.10
2007,03,14,15,09,9.10
2007,03,14,15,10,9.20
2007,03,14,15,11,9.20
2007,03,14,15,12,9.20
2007,03,14,15,13,9.30
2007,03,14,15,14,9.40
2007,03,14,15,15,9.40
2007,03,14,15,16,9.40
2007,03,14,15,17,9.30
2007,03,14,15,18,9.20
2007,03,14,15,19,9.20
2007,03,14,15,20,9.20
2007,03,14,15,21,9.20
2007,03,14,15,22,9.20
2007,03,14,15,23,9.10
2007,03,14,15,24,9.10
2007,03,14,15,25,9.10
2007,03,14,15,26,9.10
2007,03,14,15,27,9.00
2007,03,14,15,28,9.00
2007,03,14,15,29,9.10
2007,03,14,15,30,9.20
2007,03,14,15,31,9.10
2007,03,14,15,32,9.20
2007,03,14,15,33,9.20
2007,03,14,15,34,9.20
2007,03,14,15,35,9.40
2007,03,14,15,36,9.50
2007,03,14,15,37,9.50
2007,03,14,15,38,9.50
2007,03,14,15,39,9.50
2007,03,14,15,40,9.50
2007,03,14,15,41,9.50
2007,03,14,15,42,9.40
2007,03,14,15,43,9.40
2007,03,14,15,44,9.40
2007,03,14,15,45,9.30
2007,03,14,15,46,9.30
2007,03,14,15,47,9.30
2007,03,14,15,48,9.30
2007,03,14,15,49,9.30
2007,03,14,15,50,9.30
2007,03,14,15,51,9.40
2007,03,14,15,52,9.50
2007,03,14,15,53,9.50
2007,03,14,15,54,9.50
2007,03,14,15,55,9.60
2007,03,14,15,56,9.60
2007,03,14,15,57,9.70
2007,03,14,15,58,9.60
2007,03,14,15,59,9.60
2007,03,14,16,00,9.60
2007,03,14,16,01,9.60
2007,03,14,16,02,9.70
2007,03,14,16,03,9.70
2007,03,14,16,04,9.70
2007,03,14,16,05,9.70
2007,03,14,16,06,9.60
2007,03,14,16,07,9.60
2007,03,14,16,08,9.50
2007,03,14,16,09,9.50
2007,03,14,16,10,9.50
2007,03,14,16,11,9.50
2007,03,14,16,12,9.60
2007,03,14,16,13,9.70
2007,03,14,16,14,9.70
2007,03,14,16,15,9.90
2007,03,14,16,16,10.00
2007,03,14,16,17,10.10
2007,03,14,16,18,10.20
2007,03,14,16,19,10.20
2007,03,14,16,20,10.10
2007,03,14,16,21,10.00
2007,03,14,16,22,9.90
2007,03,14,16,23,9.90
2007,03,14,16,24,10.00
2007,03,14,16,25,10.10
2007,03,14,16,26,10.00
2007,03,14,16,27,9.90
2007,03,14,16,28,9.90
2007,03,14,16,29,9.70
2007,03,14,16,30,9.70
2007,03,14,16,31,9.70
2007,03,14,16,32,9.70
2007,03,14,16,33,9.90
2007,03,14,16,34,9.90
2007,03,14,16,35,9.90
2007,03,14,16,36,9.80
2007,03,14,16,37,9.60
2007,03,14,16,38,9.40
2007,03,14,16,39,9.30
2007,03,14,16,40,9.20
2007,03,14,16,41,9.20
2007,03,14,16,42,9.10
2007,03,14,16,43,9.00
2007,03,14,16,44,9.00
2007,03,14,16,45,8.90
2007,03,14,16,46,8.90
2007,03,14,16,47,8.90
2007,03,14,16,48,8.90
2007,03,14,16,49,8.80
2007,03,14,16,50,8.70
2007,03,14,16,51,8.60
2007,03,14,16,52,8.50
2007,03,14,16,53,8.50
2007,03,14,16,54,8.40
2007,03,14,16,55,8.20
2007,03,14,16,56,8.20
2007,03,14,16,57,8.10
2007,03,14,16,58,8.10
2007,03,14,16,59,8.00
2007,03,14,17,00,7.90
2007,03,14,17,01,7.90
2007,03,14,17,02,7.80
2007,03,14,17,03,7.80
2007,03,14,17,04,7.80
2007,03,14,17,05,7.80
2007,03,14,17,06,7.70
2007,03,14,17,07,7.70
2007,03,14,17,08,7.70
2007,03,14,17,09,7.60
2007,03,14,17,10,7.50
2007,03,14,17,11,7.50
2007,03,14,17,12,7.50
2007,03,14,17,13,7.50
2007,03,14,17,14,7.50
2007,03,14,17,15,7.50
2007,03,14,17,16,7.50
2007,03,14,17,17,7.50
2007,03,14,17,18,7.50
2007,03,14,17,19,7.40
2007,03,14,17,20,7.40
2007,03,14,17,21,7.40
2007,03,14,17,22,7.40
2007,03,14,17,23,7.40
2007,03,14,17,24,7.40
2007,03,14,17,25,7.40
2007,03,14,17,26,7.40
2007,03,14,17,27,7.40
2007,03,14,17,28,7.40
2007,03,14,17,29,7.40
2007,03,14,17,30,7.30
2007,03,14,17,31,7.30
2007,03,14,17,32,7.30
2007,03,14,17,33,7.30
2007,03,14,17,34,7.30
2007,03,14,17,35,7.30
2007,03,14,17,36,7.30
2007,03,14,17,37,7.20
2007,03,14,17,38,7.20
2007,03,14,17,39,7.20
2007,03,14,17,40,7.20
2007,03,14,17,41,7.10
2007,03,14,17,42,7.10
2007,03,14,17,43,7.10
2007,03,14,17,44,7.10
2007,03,14,17,45,7.10
2007,03,14,17,46,7.10
2007,03,14,17,47,7.10
2007,03,14,17,48,7.10
2007,03,14,17,49,7.10
2007,03,14,17,50,7.10
2007,03,14,17,51,7.00
2007,03,14,17,52,7.00
2007,03,14,17,53,7.00
2007,03,14,17,54,7.00
2007,03,14,17,55,7.00
2007,03,14,17,56,6.90
2007,03,14,17,57,6.90
2007,03,14,17,58,6.90
2007,03,14,17,59,6.90
2007,03,14,18,00,6.90
2007,03,14,18,01,6.90
2007,03,14,18,02,6.90
2007,03,14,18,03,6.90
2007,03,14,18,04,6.90
2007,03,14,18,05,6.80
2007,03,14,18,06,6.80